Location: Ferintosh
(52.7647°N, 112.9692°W)
Time: 18:33:41
(UTC+00:00)

Explorer 7 - Pass Details

Date: 24 May 2024
Orbit: 466 x 622 km, 50.3° (Epoch: 15 June)

Event Time Altitude Azimuth Distance (km) Brightness Sun altitude
Rises 11:01:54 0° 279° (W) 2,655 9.9 -3.1°
Reaches altitude 10° 11:04:20 10° 266° (W) 1,794 9.0 -2.8°
Maximum altitude 11:07:42 25° 210° (SSW) 1,147 7.9 -2.4°
Drops below altitude 10° 11:11:11 10° 155° (SSE) 1,870 9.4 -2.0°
Sets 11:13:47 0° 143° (SE) 2,796 10.4 -1.7°
